DW5522 Weather Reports


time (UTC)temp
F
wind
direction
speed
knots
gust
knots
rain 1hr
in
rain 24hr
in
rain mn
in
humidity
%
barometer
mb
20260507055004 47 350 3.5 4.3 0.00 0.00 0.00 92 1013.5
20260507054802 47 348 0.0 5.2 0.00 0.00 0.00 93 1013.5
20260507054604 47 318 2.6 6.1 0.00 0.00 0.00 93 1013.5
20260507054504 47 317 3.5 6.1 0.00 0.00 0.00 93 1013.5
20260507054402 47 318 1.7 6.1 0.00 0.00 0.00 93 1013.5
20260507054303 47 313 3.5 6.1 0.00 0.00 0.00 93 1013.5
20260507054215 47 313 3.5 6.1 0.00 0.00 0.00 93 1013.5
20260507054210 46 318 2.6 6.1 0.00 0.00 0.00 92 13.2
20260507054004 47 312 0.9 3.5 0.00 0.00 0.00 93 1013.5
20260507053903 47 313 2.6 3.5 0.00 0.00 0.00 93 1013.5
20260507053803 47 313 0.9 3.5 0.00 0.00 0.00 93 1013.5
20260507053603 47 333 0.0 5.2 0.00 0.00 0.00 93 1013.5
20260507053403 47 337 1.7 5.2 0.00 0.00 0.00 93 1013.5
20260507053302 47 333 1.7 5.2 0.00 0.00 0.00 93 1013.5
20260507053214 47 312 1.7 4.3 0.00 0.00 0.00 93 1013.5
20260507053212 47 333 4.3 5.2 0.00 0.00 0.00 93 1013.5
20260507053210 46 333 3.5 5.2 0.00 0.00 0.00 92 13.2
20260507053203 47 312 1.7 3.5 0.00 0.00 0.00 93 1013.5
20260507052902 47 348 0.0 4.3 0.00 0.00 0.00 93 1013.5
20260507052703 47 302 1.7 4.3 0.00 0.00 0.00 93 1013.4
20260507052504 47 294 2.6 4.3 0.00 0.00 0.00 93 1013.4
20260507052402 47 319 2.6 3.5 0.00 0.00 0.00 93 1013.4
20260507052306 47 322 1.7 3.5 0.00 0.00 0.00 93 1013.4
20260507052214 47 322 2.6 3.5 0.00 0.00 0.00 93 1013.4
20260507052211 46 323 1.7 3.5 0.00 0.00 0.00 92 13.1
20260507052102 47 317 1.7 3.5 0.00 0.00 0.00 93 1013.4
20260507051903 47 315 3.5 3.5 0.00 0.00 0.00 93 1013.3
20260507051802 47 313 2.6 3.5 0.00 0.00 0.00 93 1013.3
20260507051703 47 309 2.6 3.5 0.00 0.00 0.00 93 1013.3
20260507051504 47 319 1.7 4.3 0.00 0.00 0.00 93 1013.3
20260507051402 47 315 0.9 4.3 0.00 0.00 0.00 93 1013.3
20260507051214 46 315 1.7 4.3 0.00 0.00 0.00 93 1013.3
20260507051211 47 315 2.6 4.3 0.00 0.00 0.00 93 1013.3
20260507051203 47 315 2.6 4.3 0.00 0.00 0.00 93 1013.3
20260507051004 47 300 1.7 3.5 0.00 0.00 0.00 93 1013.3
20260507050903 47 295 1.7 3.5 0.00 0.00 0.00 93 1013.2
20260507050604 47 290 1.7 3.5 0.00 0.00 0.00 93 1013.2
20260507050504 47 336 2.6 3.5 0.00 0.00 0.00 93 1013.1
20260507050403 47 337 0.0 3.5 0.00 0.00 0.00 93 1013.1
20260507050214 46 321 1.7 2.6 0.00 0.00 0.00 93 1013.1
20260507050210 46 321 1.7 2.6 0.00 0.00 0.00 92 12.8
20260507050202 46 321 1.7 3.5 0.00 0.00 0.00 93 1013.1
20260507045903 46 321 0.0 2.6 0.00 0.00 0.00 93 1013.0
20260507045603 46 325 1.7 3.5 0.00 0.00 0.00 93 1013.0
20260507045504 46 323 1.7 3.5 0.00 0.00 0.00 93 1012.9
20260507045403 46 323 1.7 3.5 0.00 0.00 0.00 93 1012.9
20260507045214 46 323 2.6 3.5 0.00 0.00 0.00 94 1012.9
20260507045211 46 323 2.6 3.5 0.00 0.00 0.00 92 12.7
20260507045203 46 321 1.7 2.6 0.00 0.00 0.00 94 1012.9
20260507045004 46 320 0.0 2.6 0.00 0.00 0.00 94 1012.9
20260507044802 46 321 1.7 2.6 0.00 0.00 0.00 94 1012.9
20260507044505 46 319 0.0 2.6 0.00 0.00 0.00 94 1012.8
20260507044403 46 315 1.7 3.5 0.00 0.00 0.00 94 1012.8
20260507044211 46 318 0.9 3.5 0.00 0.00 0.00 94 1012.8
20260507044203 46 318 1.7 3.5 0.00 0.00 0.00 94 1012.8
20260507044004 46 318 1.7 3.5 0.00 0.00 0.00 94 1012.8
20260507043802 46 321 1.7 4.3 0.00 0.00 0.00 94 1012.8
20260507043504 46 317 2.6 4.3 0.00 0.00 0.00 94 1012.8
20260507043211 46 318 1.7 2.6 0.00 0.00 0.00 94 1012.7
20260507043202 46 318 0.9 2.6 0.00 0.00 0.00 94 1012.7
20260507043005 46 317 0.9 2.6 0.00 0.00 0.00 94 1012.7
20260507042802 46 316 0.0 3.5 0.00 0.00 0.00 94 1012.7
20260507042505 46 313 1.7 3.5 0.00 0.00 0.00 94 1012.7
20260507042403 46 317 1.7 3.5 0.00 0.00 0.00 94 1012.7
20260507042306 46 320 1.7 3.5 0.00 0.00 0.00 94 1012.6
20260507042211 46 321 1.7 3.5 0.00 0.00 0.00 94 1012.6
20260507042103 46 320 1.7 3.5 0.00 0.00 0.00 94 1012.6
20260507042003 46 316 1.7 3.5 0.00 0.00 0.00 94 1012.5
20260507041903 46 315 1.7 3.5 0.00 0.00 0.00 94 1012.6
20260507041703 46 308 0.9 2.6 0.00 0.00 0.00 94 1012.6
20260507041504 46 307 0.9 2.6 0.00 0.00 0.00 94 1012.6
20260507041402 46 306 1.7 2.6 0.00 0.00 0.00 94 1012.6
20260507041302 46 306 0.9 2.6 0.00 0.00 0.00 94 1012.6
20260507041211 46 306 1.7 2.6 0.00 0.00 0.00 92 12.3
20260507040802 46 306 1.7 2.6 0.00 0.00 0.00 94 1012.5
20260507040703 46 304 0.9 2.6 0.00 0.00 0.00 94 1012.5
20260507040603 46 304 1.7 2.6 0.00 0.00 0.00 94 1012.5
20260507040504 46 304 0.9 2.6 0.00 0.00 0.00 94 1012.5
20260507040211 46 304 1.7 2.6 0.00 0.00 0.00 92 12.3
20260507040203 46 304 1.7 2.6 0.00 0.00 0.00 94 1012.5
20260507035902 46 304 0.9 1.7 0.00 0.00 0.00 94 1012.5
20260507035702 46 304 0.9 2.6 0.00 0.00 0.00 94 1012.5
20260507035603 46 304 0.9 2.6 0.00 0.00 0.00 94 1012.4
20260507035403 46 304 1.7 2.6 0.00 0.00 0.00 94 1012.5
20260507035305 46 304 0.9 2.6 0.00 0.00 0.00 94 1012.4
20260507035203 46 304 1.7 2.6 0.00 0.00 0.00 94 1012.4
20260507035103 46 304 0.9 3.5 0.00 0.00 0.00 94 1012.4
20260507034902 46 304 1.7 3.5 0.00 0.00 0.00 94 1012.4
20260507034803 46 304 0.9 3.5 0.00 0.00 0.00 94 1012.4
20260507034211 46 304 1.7 3.5 0.00 0.00 0.00 92 12.1
20260507034004 46 304 1.7 3.5 0.00 0.00 0.00 94 1012.4
20260507033903 46 300 1.7 3.5 0.00 0.00 0.00 94 1012.4
20260507033802 46 299 0.9 3.5 0.00 0.00 0.00 94 1012.3
20260507033603 46 298 0.9 2.6 0.00 0.00 0.00 94 1012.4
20260507033211 46 298 0.9 2.6 0.00 0.00 0.00 94 1012.3
20260507033202 46 298 1.7 2.6 0.00 0.00 0.00 94 1012.3
20260507033005 46 294 0.9 2.6 0.00 0.00 0.00 94 1012.3
20260507032903 46 294 0.9 1.7 0.00 0.00 0.00 94 1012.3
20260507032702 46 294 0.9 2.6 0.00 0.00 0.00 94 1012.4
20260507032504 46 294 1.7 2.6 0.00 0.00 0.00 94 1012.3
20260507032402 46 294 0.9 2.6 0.00 0.00 0.00 94 1012.3
20260507032211 46 294 0.9 2.6 0.00 0.00 0.00 92 12.1
20260507032103 46 294 1.7 2.6 0.00 0.00 0.00 94 1012.3
20260507032003 46 294 0.9 2.6 0.00 0.00 0.00 94 1012.4
20260507031802 46 294 0.9 2.6 0.00 0.00 0.00 94 1012.3
20260507031702 46 294 1.7 2.6 0.00 0.00 0.00 94 1012.4
20260507031604 46 294 1.7 2.6 0.00 0.00 0.00 94 1012.3
20260507031504 46 294 1.7 2.6 0.00 0.00 0.00 94 1012.4
20260507031402 46 294 0.9 1.7 0.00 0.00 0.00 94 1012.4
20260507031211 46 294 0.9 1.7 0.00 0.00 0.00 92 12.0
20260507030903 46 294 0.9 1.7 0.00 0.00 0.00 94 1012.3
20260507030702 46 294 0.9 2.6 0.00 0.00 0.00 94 1012.3
20260507030211 46 294 1.7 2.6 0.00 0.00 0.00 94 1012.3
20260507030004 46 296 1.7 2.6 0.00 0.00 0.00 94 1012.3
20260507025904 46 300 1.7 2.6 0.00 0.00 0.00 94 1012.3
20260507025803 46 300 1.7 2.6 0.00 0.00 0.00 94 1012.4
20260507025704 46 300 0.9 2.6 0.00 0.00 0.00 94 1012.3
20260507025602 46 300 1.7 2.6 0.00 0.00 0.00 94 1012.4
20260507025504 46 300 1.7 2.6 0.00 0.00 0.00 94 1012.3
20260507025402 46 302 0.9 2.6 0.00 0.00 0.00 94 1012.4
20260507025211 46 302 0.9 2.6 0.00 0.00 0.00 92 12.0
20260507025202 46 302 0.9 2.6 0.00 0.00 0.00 94 1012.3
20260507024803 46 302 1.7 2.6 0.00 0.00 0.00 94 1012.3
20260507024703 46 302 0.9 2.6 0.00 0.00 0.00 94 1012.3
20260507024211 46 307 1.7 2.6 0.00 0.00 0.00 92 12.0
20260507024004 46 307 1.7 2.6 0.00 0.00 0.00 94 1012.2
20260507023702 46 308 1.7 3.5 0.00 0.00 0.00 94 1012.2
20260507023603 46 307 0.9 3.5 0.00 0.00 0.00 94 1012.2
20260507023504 46 306 1.7 3.5 0.00 0.00 0.00 94 1012.2
20260507023404 46 307 1.7 3.5 0.00 0.00 0.00 94 1012.2
20260507023211 46 307 1.7 4.3 0.00 0.00 0.00 92 11.9
20260507023103 46 304 2.6 3.5 0.00 0.00 0.00 94 1012.2
20260507023005 46 296 1.7 3.5 0.00 0.00 0.00 94 1012.2
20260507022802 46 302 1.7 3.5 0.00 0.00 0.00 94 1012.2
20260507022702 46 303 1.7 3.5 0.00 0.00 0.00 94 1012.1
20260507022603 46 303 2.6 3.5 0.00 0.00 0.00 94 1012.2
20260507022504 46 303 2.6 3.5 0.00 0.00 0.00 93 1012.1
20260507022402 46 303 1.7 3.5 0.00 0.00 0.00 94 1012.0
20260507022103 46 302 1.7 3.5 0.00 0.00 0.00 94 1012.1
20260507022004 46 300 2.6 3.5 0.00 0.00 0.00 94 1012.1
20260507021902 46 300 2.6 4.3 0.00 0.00 0.00 94 1012.1
20260507021803 46 300 1.7 4.3 0.00 0.00 0.00 94 1012.1
20260507021703 46 303 1.7 4.3 0.00 0.00 0.00 94 1012.1
20260507021603 46 303 2.6 4.3 0.00 0.00 0.00 94 1012.1
20260507021503 46 303 1.7 4.3 0.00 0.00 0.00 94 1012.1
20260507021402 46 300 0.9 3.5 0.00 0.00 0.00 94 1012.0
20260507021302 46 303 0.9 3.5 0.00 0.00 0.00 94 1012.0
20260507021211 46 303 1.7 3.5 0.00 0.00 0.00 92 11.8
20260507021102 46 301 1.7 3.5 0.00 0.00 0.00 94 1012.1
20260507020903 46 302 1.7 3.5 0.00 0.00 0.00 94 1012.0
20260507020803 46 313 0.9 3.5 0.00 0.00 0.00 94 1012.0
20260507020702 46 313 2.6 3.5 0.00 0.00 0.00 94 1012.0
20260507020504 46 313 1.7 3.5 0.00 0.00 0.00 94 1012.0
20260507020404 46 309 2.6 3.5 0.00 0.00 0.00 94 1012.0
20260507020302 46 311 2.6 3.5 0.00 0.00 0.00 94 1012.0
20260507020211 46 311 2.6 2.6 0.00 0.00 0.00 92 11.8
20260507020202 46 306 1.7 3.5 0.00 0.00 0.00 94 1012.1
20260507020103 46 305 1.7 3.5 0.00 0.00 0.00 94 1012.0
20260507015902 46 306 0.0 3.5 0.00 0.00 0.00 94 1012.0
20260507015702 46 304 2.6 3.5 0.00 0.00 0.00 93 1012.0
20260507015603 46 304 1.7 3.5 0.00 0.00 0.00 93 1012.0
20260507015504 46 302 0.0 3.5 0.00 0.00 0.00 93 1012.0
20260507015306 46 292 1.7 3.5 0.00 0.00 0.00 93 1012.1
20260507015211 46 302 1.7 3.5 0.00 0.00 0.00 92 11.8
20260507014804 46 299 1.7 4.3 0.00 0.00 0.00 93 1012.0
20260507014602 46 307 1.7 3.5 0.00 0.00 0.00 93 1012.0
20260507014403 46 308 1.7 4.3 0.00 0.00 0.00 93 1011.9
20260507014211 46 307 1.7 4.3 0.00 0.00 0.00 92 11.7
20260507014203 46 308 3.5 4.3 0.00 0.00 0.00 93 1011.9
20260507014004 46 307 2.6 4.3 0.00 0.00 0.00 93 1011.9
20260507013902 46 308 2.6 4.3 0.00 0.00 0.00 93 1011.9
20260507013702 46 307 1.7 4.3 0.00 0.00 0.00 93 1011.9
20260507013602 46 309 3.5 4.3 0.00 0.00 0.00 93 1011.9
20260507013504 46 295 2.6 4.3 0.00 0.00 0.00 93 1011.8
20260507013402 46 316 1.7 4.3 0.00 0.00 0.00 93 1011.9
20260507013302 46 315 2.6 4.3 0.00 0.00 0.00 93 1011.9
20260507013211 46 315 1.7 4.3 0.00 0.00 0.00 92 11.5
20260507013202 46 311 2.6 4.3 0.00 0.00 0.00 93 1011.8
20260507013103 46 313 2.6 4.3 0.00 0.00 0.00 93 1011.8
20260507012603 46 308 1.7 3.5 0.00 0.00 0.00 93 1011.8
20260507012503 46 304 2.6 3.5 0.00 0.00 0.00 93 1011.8
20260507012211 46 316 1.7 4.3 0.00 0.00 0.00 92 11.5
20260507012202 46 325 2.6 4.3 0.00 0.00 0.00 93 1011.8
20260507012009 46 342 2.6 4.3 0.00 0.00 0.00 93 1011.8
20260507011903 46 316 2.6 4.3 0.00 0.00 0.00 93 1011.8
20260507011703 46 323 1.7 2.6 0.00 0.00 0.00 93 1011.8
20260507011603 46 323 1.7 3.5 0.00 0.00 0.00 93 1011.7
20260507011505 46 323 0.9 3.5 0.00 0.00 0.00 93 1011.8
20260507011402 46 323 0.0 3.5 0.00 0.00 0.00 93 1011.7
20260507011211 46 323 1.7 4.3 0.00 0.00 0.00 93 1011.7
20260507011203 46 323 1.7 4.3 0.00 0.00 0.00 93 1011.7
20260507011103 46 323 1.7 4.3 0.00 0.00 0.00 93 1011.6
20260507010703 46 316 2.6 4.3 0.00 0.00 0.00 93 1011.7
20260507010602 46 355 1.7 4.3 0.00 0.00 0.00 93 1011.7
20260507010504 46 298 2.6 4.3 0.00 0.00 0.00 93 1011.6
20260507010403 46 297 0.9 4.3 0.00 0.00 0.00 93 1011.7
20260507010303 46 325 1.7 2.6 0.00 0.00 0.00 93 1011.7
20260507010211 46 325 0.9 3.5 0.00 0.00 0.00 92 11.4
20260507010204 46 325 1.7 3.5 0.00 0.00 0.00 93 1011.6
20260507005802 46 325 1.7 5.2 0.00 0.00 0.00 93 1011.7
20260507005703 46 325 2.6 5.2 0.00 0.00 0.00 93 1011.7
20260507005504 46 300 1.7 3.5 0.00 0.00 0.00 93 1011.7
20260507005211 46 300 2.6 4.3 0.00 0.00 0.00 92 11.4
20260507005103 46 300 2.6 3.5 0.00 0.00 0.00 93 1011.7
20260507005003 46 300 2.6 4.3 0.00 0.00 0.00 93 1011.7
20260507004802 46 300 1.7 4.3 0.00 0.00 0.00 94 1011.7
20260507004703 46 300 1.7 4.3 0.00 0.00 0.00 93 1011.6
20260507004602 46 300 2.6 4.3 0.00 0.00 0.00 94 1011.7
20260507004504 46 296 3.5 3.5 0.00 0.00 0.00 94 1011.6
20260507004211 46 314 1.7 2.6 0.00 0.00 0.00 92 11.4
20260507004103 46 311 1.7 2.6 0.00 0.00 0.00 93 1011.6
20260507003902 46 308 0.0 3.5 0.00 0.00 0.00 93 1011.6
20260507003702 46 309 2.6 3.5 0.00 0.00 0.00 93 1011.6
20260507003603 46 307 1.7 3.5 0.00 0.00 0.00 93 1011.6
20260507003504 46 306 2.6 3.5 0.00 0.00 0.00 93 1011.6
20260507003402 46 307 2.6 3.5 0.00 0.00 0.00 93 1011.6
20260507003302 46 306 1.7 4.3 0.00 0.00 0.00 93 1011.6
20260507003213 46 305 2.6 4.3 0.00 0.00 0.00 92 11.4
20260507003211 46 306 1.7 4.3 0.00 0.00 0.00 93 1011.6
20260507003102 46 303 1.7 4.3 0.00 0.00 0.00 93 1011.6
20260507003004 46 302 2.6 4.3 0.00 0.00 0.00 93 1011.6
20260507002803 46 311 3.5 4.3 0.00 0.00 0.00 93 1011.5
20260507002702 46 312 2.6 4.3 0.00 0.00 0.00 93 1011.5
20260507002603 46 308 1.7 3.5 0.00 0.00 0.00 93 1011.5
20260507002504 46 304 1.7 3.5 0.00 0.00 0.00 93 1011.5
20260507002403 46 303 2.6 3.5 0.00 0.00 0.00 93 1011.5
20260507002213 46 304 2.6 4.3 0.00 0.00 0.00 92 11.3
20260507002210 46 304 2.6 4.3 0.00 0.00 0.00 93 1011.5
20260507002203 46 301 1.7 4.3 0.00 0.00 0.00 93 1011.5
20260507002103 46 304 1.7 4.3 0.00 0.00 0.00 93 1011.5
20260507001902 46 307 1.7 4.3 0.00 0.00 0.00 93 1011.5
20260507001703 46 310 1.7 3.5 0.00 0.00 0.00 93 1011.5
20260507001603 46 310 0.9 3.5 0.00 0.00 0.00 93 1011.5
20260507001504 46 314 1.7 3.5 0.00 0.00 0.00 93 1011.4
20260507001302 46 314 1.7 3.5 0.00 0.00 0.00 93 1011.5
20260507001213 46 314 2.6 3.5 0.00 0.00 0.00 92 11.2
20260507001210 46 314 2.6 3.5 0.00 0.00 0.00 93 1011.5
20260507001203 46 306 1.7 3.5 0.00 0.00 0.00 93 1011.4
20260507001005 46 306 1.7 3.5 0.00 0.00 0.00 93 1011.5
20260507000903 46 307 1.7 2.6 0.00 0.00 0.00 93 1011.5
20260507000802 46 305 1.7 3.5 0.00 0.00 0.00 93 1011.5
20260507000703 46 306 1.7 3.5 0.00 0.00 0.00 93 1011.4
20260507000504 46 306 2.6 3.5 0.00 0.00 0.00 93 1011.5
20260507000303 46 306 1.7 3.5 0.00 0.00 0.00 93 1011.5
20260507000213 46 306 1.7 3.5 0.00 0.00 0.00 92 11.2
20260507000205 46 305 1.7 3.5 0.00 0.00 0.00 93 1011.5
20260507000005 46 306 1.7 3.5 0.00 0.00 0.00 93 1011.5
20260506235903 46 305 2.6 3.5 0.00 0.00 0.00 93 1011.5
20260506235703 46 307 1.7 3.5 0.00 0.00 0.00 93 1011.5
20260506235306 46 317 1.7 3.5 0.00 0.00 0.00 93 1011.5
20260506235213 46 317 0.9 3.5 0.00 0.00 0.00 92 11.2
20260506235210 46 317 0.9 3.5 0.00 0.00 0.00 93 1011.5
20260506235103 46 317 2.6 3.5 0.00 0.00 0.00 93 1011.5
20260506235004 46 319 1.7 3.5 0.00 0.00 0.00 93 1011.4
20260506234902 46 319 1.7 3.5 0.00 0.00 0.00 93 1011.5
20260506234802 46 319 1.7 3.5 0.00 0.00 0.00 93 1011.4
20260506234703 46 319 1.7 3.5 0.00 0.00 0.00 93 1011.5
20260506234603 46 319 1.7 3.5 0.00 0.00 0.00 93 1011.4
20260506234213 46 336 1.7 2.6 0.00 0.00 0.00 92 11.2
20260506234210 46 336 1.7 2.6 0.00 0.00 0.00 93 1011.4
20260506234202 46 336 0.9 2.6 0.00 0.00 0.00 93 1011.5
20260506233902 46 336 0.9 3.5 0.00 0.00 0.00 93 1011.5
20260506233702 46 336 1.7 3.5 0.00 0.00 0.00 93 1011.5
20260506233603 46 337 0.9 3.5 0.00 0.00 0.00 93 1011.5
20260506233402 46 338 1.7 3.5 0.00 0.00 0.00 93 1011.5
20260506233302 46 338 0.9 3.5 0.00 0.00 0.00 93 1011.4
20260506233213 46 338 1.7 3.5 0.00 0.00 0.00 92 11.2
20260506233211 46 338 1.7 3.5 0.00 0.00 0.00 93 1011.5
20260506233202 46 355 0.9 1.7 0.00 0.00 0.00 93 1011.4
20260506232803 46 355 0.9 3.5 0.00 0.00 0.00 93 1011.4
20260506232503 46 355 1.7 2.6 0.00 0.00 0.00 93 1011.4
20260506232403 46 351 0.9 2.6 0.00 0.00 0.00 93 1011.4
20260506232306 46 351 1.7 2.6 0.00 0.00 0.00 93 1011.4
20260506232213 46 351 0.9 3.5 0.00 0.00 0.00 92 11.2
20260506232211 46 351 0.9 3.5 0.00 0.00 0.00 93 1011.4
20260506232003 46 346 1.7 3.5 0.00 0.00 0.00 93 1011.4
20260506231902 46 27 1.7 3.5 0.00 0.00 0.00 93 1011.4
20260506231802 46 27 0.9 3.5 0.00 0.00 0.00 93 1011.3
20260506231213 46 31 1.7 2.6 0.00 0.00 0.00 92 11.1
20260506231211 46 31 1.7 2.6 0.00 0.00 0.00 93 1011.4
20260506231003 46 31 0.9 2.6 0.00 0.00 0.00 93 1011.3
20260506230703 46 31 1.7 2.6 0.00 0.00 0.00 93 1011.3
20260506230504 46 31 0.9 2.6 0.00 0.00 0.00 93 1011.3
20260506230403 46 34 1.7 2.6 0.00 0.00 0.00 93 1011.3
20260506230303 46 34 0.9 3.5 0.00 0.00 0.00 93 1011.3
20260506230103 46 30 0.9 3.5 0.00 0.00 0.00 93 1011.3
20260506230004 46 34 1.7 3.5 0.00 0.00 0.00 93 1011.3
20260506225803 46 27 1.7 3.5 0.00 0.00 0.00 93 1011.2
20260506225702 46 26 1.7 3.5 0.00 0.00 0.00 93 1011.3
20260506225603 46 26 0.9 3.5 0.00 0.00 0.00 93 1011.2
20260506225503 46 34 1.7 2.6 0.00 0.00 0.00 93 1011.2
20260506225403 46 34 0.9 4.3 0.00 0.00 0.00 93 1011.2
20260506225305 46 34 1.7 4.3 0.00 0.00 0.00 93 1011.2
20260506225213 46 34 0.9 4.3 0.00 0.00 0.00 92 11.0
20260506225210 46 34 0.9 4.3 0.00 0.00 0.00 93 1011.2
20260506225203 46 30 1.7 4.3 0.00 0.00 0.00 94 1011.2
20260506225103 46 30 2.6 4.3 0.00 0.00 0.00 94 1011.2
20260506225003 46 30 1.7 4.3 0.00 0.00 0.00 94 1011.1
20260506224902 46 34 1.7 3.5 0.00 0.00 0.00 94 1011.2
20260506224505 46 34 1.7 5.2 0.00 0.00 0.00 94 1011.2
20260506224302 46 34 3.5 5.2 0.00 0.00 0.00 94 1011.1
20260506224213 46 34 2.6 5.2 0.00 0.00 0.00 93 10.9
20260506224211 46 34 2.6 5.2 0.00 0.00 0.00 94 1011.1
20260506224203 46 24 1.7 5.2 0.00 0.00 0.00 94 1011.2
20260506224103 46 27 1.7 4.3 0.00 0.00 0.00 94 1011.1
20260506223902 46 23 1.7 5.2 0.00 0.00 0.00 94 1011.1
20260506223702 46 14 2.6 7.0 0.00 0.00 0.00 94 1011.1
20260506223603 46 355 0.0 7.0 0.00 0.00 0.00 94 1011.1
20260506223503 46 26 2.6 7.0 0.00 0.00 0.00 94 1011.1
20260506223402 46 26 1.7 7.0 0.00 0.00 0.00 94 1011.1
20260506223213 46 31 1.7 7.8 0.00 0.00 0.00 93 10.9
20260506223210 46 31 1.7 7.8 0.00 0.00 0.00 94 1011.1
20260506223202 46 31 2.6 7.0 0.00 0.00 0.00 94 1011.1
20260506223103 46 24 2.6 7.0 0.00 0.00 0.00 94 1011.1
20260506223005 46 5 2.6 4.3 0.00 0.00 0.00 94 1011.0
20260506222903 46 360 1.7 4.3 0.00 0.00 0.00 94 1011.1
20260506222802 46 355 1.7 4.3 0.00 0.00 0.00 94 1011.0
20260506222703 46 355 2.6 4.3 0.00 0.00 0.00 94 1011.0
20260506222603 46 51 3.5 7.0 0.00 0.00 0.00 94 1011.0
20260506222503 46 37 1.7 7.0 0.00 0.00 0.00 94 1011.0
20260506222403 46 24 2.6 7.0 0.00 0.00 0.00 94 1011.0
20260506222305 46 22 4.3 7.0 0.00 0.00 0.00 94 1010.9
20260506222203 46 34 2.6 7.0 0.00 0.00 0.00 94 1011.0
20260506222103 46 36 2.6 4.3 0.00 0.00 0.00 94 1010.9
20260506222004 46 44 2.6 4.3 0.00 0.00 0.00 94 1011.0
20260506221903 46 28 2.6 3.5 0.00 0.00 0.00 94 1010.9
20260506221803 46 36 0.9 3.5 0.00 0.00 0.00 94 1011.0
20260506221703 46 27 1.7 3.5 0.00 0.00 0.00 94 1011.0
20260506221603 46 27 2.6 7.0 0.00 0.00 0.00 94 1010.9
20260506221505 46 28 2.6 7.0 0.00 0.00 0.00 94 1010.9
20260506221402 46 15 2.6 7.0 0.00 0.00 0.00 94 1010.8
20260506221302 46 28 5.2 7.0 0.00 0.00 0.00 94 1010.9
20260506221213 46 28 2.6 7.0 0.00 0.00 0.00 93 10.6
20260506221210 46 28 2.6 7.0 0.00 0.00 0.00 94 1010.9
20260506221102 46 36 2.6 4.3 0.00 0.00 0.00 94 1010.8
20260506221004 46 36 1.7 4.3 0.00 0.00 0.00 94 1010.8
20260506220802 46 35 1.7 4.3 0.00 0.00 0.00 94 1010.8
20260506220703 46 35 2.6 4.3 0.00 0.00 0.00 94 1010.8
20260506220604 46 24 1.7 4.3 0.00 0.00 0.00 94 1010.8
20260506220403 46 30 1.7 4.3 0.00 0.00 0.00 94 1010.7
20260506220302 46 28 2.6 4.3 0.00 0.00 0.00 94 1010.6
20260506220202 46 30 2.6 4.3 0.00 0.00 0.00 94 1010.7
20260506215902 46 30 1.7 4.3 0.00 0.70 0.70 94 1010.6
20260506215702 46 30 1.7 3.5 0.00 0.70 0.70 94 1010.7
20260506215504 46 23 0.0 5.2 0.00 0.70 0.70 94 1010.6
20260506215402 46 360 2.6 7.8 0.00 0.70 0.70 94 1010.6
20260506215305 46 11 1.7 7.8 0.00 0.70 0.70 94 1010.6
20260506215214 46 14 2.6 7.8 0.00 0.78 0.78 93 10.4
20260506215210 46 11 2.6 5.2 0.00 0.70 0.70 94 1010.6
20260506215004 46 355 4.3 7.8 0.00 0.70 0.70 94 1010.6
20260506214802 46 13 3.5 7.0 0.00 0.70 0.70 94 1010.5
20260506214504 46 15 4.3 7.0 0.00 0.70 0.70 94 1010.5
20260506214302 46 34 3.5 7.0 0.00 0.70 0.70 94 1010.5
20260506214214 46 32 3.5 7.0 0.00 0.78 0.78 93 10.3
20260506214210 46 32 2.6 7.0 0.00 0.70 0.70 94 1010.5
20260506214102 46 28 2.6 3.5 0.00 0.70 0.70 95 1010.5
20260506213903 46 31 3.5 5.2 0.00 0.70 0.70 95 1010.4
20260506213702 46 38 3.5 5.2 0.00 0.70 0.70 95 1010.4
20260506213504 47 36 2.6 5.2 0.00 0.70 0.70 95 1010.3
20260506213305 47 24 0.0 4.3 0.00 0.70 0.70 95 1010.4
20260506213210 47 18 2.6 5.2 0.00 0.70 0.70 95 1010.4
20260506213203 47 22 3.5 5.2 0.00 0.70 0.70 95 1010.4
20260506213005 47 29 0.0 6.1 0.00 0.70 0.70 95 1010.4
20260506212902 47 22 2.6 6.1 0.00 0.70 0.70 95 1010.4
20260506212602 47 31 2.6 6.1 0.00 0.70 0.70 95 1010.4
20260506212504 47 20 2.6 4.3 0.00 0.70 0.70 95 1010.4
20260506212403 47 32 2.6 4.3 0.00 0.70 0.70 95 1010.4
20260506212210 47 15 2.6 4.3 0.00 0.70 0.70 95 1010.4
20260506212202 47 360 2.6 6.1 0.00 0.70 0.70 95 1010.4
20260506212004 47 22 0.0 6.1 0.00 0.70 0.70 95 1010.4
20260506211802 47 336 2.6 4.3 0.00 0.70 0.70 95 1010.3
20260506211505 47 331 3.5 3.5 0.00 0.70 0.70 95 1010.4
20260506211302 47 327 0.9 3.5 0.00 0.70 0.70 95 1010.3
20260506211213 47 327 2.6 3.5 0.00 0.70 0.70 95 1010.3
20260506211210 47 322 2.6 5.2 0.00 0.70 0.70 95 1010.3
20260506211203 47 349 1.7 4.3 0.00 0.70 0.70 95 1010.3
20260506210903 47 5 4.3 4.3 0.00 0.70 0.70 95 1010.3
20260506210703 47 339 3.5 5.2 0.00 0.70 0.70 95 1010.3
20260506210403 47 351 3.5 5.2 0.00 0.70 0.70 95 1010.3
20260506210302 47 343 1.7 4.3 0.00 0.70 0.70 95 1010.2
20260506210214 47 9 2.6 4.3 0.00 0.70 0.70 95 1010.3
20260506210210 47 343 1.7 4.3 0.00 0.70 0.70 95 1010.2
20260506210104 47 9 2.6 4.3 0.00 0.70 0.70 95 1010.3
20260506205903 47 350 2.6 4.3 0.00 0.70 0.70 95 1010.2
20260506205703 47 21 2.6 4.3 0.00 0.70 0.70 95 1010.2
20260506205503 47 342 0.0 4.3 0.00 0.70 0.70 95 1010.2
20260506205210 47 333 3.5 5.2 0.00 0.78 0.78 93 10.0
20260506205204 47 327 1.7 4.3 0.00 0.70 0.70 95 1010.2
20260506205004 47 342 0.0 4.3 0.00 0.70 0.70 95 1010.2
20260506204902 47 315 0.9 5.2 0.00 0.70 0.70 95 1010.2
20260506204602 47 321 2.6 5.2 0.00 0.70 0.70 95 1010.2
20260506204402 47 40 0.9 5.2 0.00 0.70 0.70 95 1010.2
20260506204210 47 336 1.7 4.3 0.00 0.70 0.70 95 1010.3
20260506204202 47 336 2.6 4.3 0.00 0.70 0.70 95 1010.2
20260506204004 47 345 0.0 4.3 0.00 0.70 0.70 95 1010.2
20260506203903 47 337 2.6 4.3 0.00 0.70 0.70 95 1010.2
20260506203703 47 355 1.7 4.3 0.00 0.70 0.70 95 1010.2
20260506203505 47 351 0.0 4.3 0.00 0.70 0.70 95 1010.3
20260506203402 47 360 1.7 4.3 0.00 0.70 0.70 95 1010.2
20260506203210 47 344 1.7 4.3 0.00 0.70 0.70 95 1010.2
20260506203103 47 348 1.7 3.5 0.00 0.70 0.70 95 1010.2
20260506203006 47 341 1.7 3.5 0.00 0.70 0.70 95 1010.2
20260506202802 47 328 0.9 5.2 0.00 0.70 0.70 95 1010.2
20260506202505 47 342 0.0 5.2 0.00 0.70 0.70 95 1010.1
20260506202306 47 17 1.7 2.6 0.00 0.70 0.70 95 1010.1
20260506202210 47 344 2.6 4.3 0.00 0.78 0.78 93 10.0
20260506202103 47 17 0.9 2.6 0.00 0.70 0.70 95 1010.1
20260506202004 47 17 2.6 3.5 0.00 0.70 0.70 95 1010.1
20260506201803 47 338 2.6 3.5 0.00 0.70 0.70 95 1010.1
20260506201604 47 338 3.5 3.5 0.00 0.70 0.70 95 1010.1
20260506201403 47 31 2.6 3.5 0.00 0.70 0.70 95 1010.1
20260506201211 47 19 1.7 7.0 0.00 0.70 0.70 95 1010.1
20260506201209 47 19 1.7 4.3 0.00 0.70 0.70 95 1010.1
20260506201203 47 19 1.7 7.0 0.00 0.70 0.70 95 1010.1
20260506201003 47 35 2.6 7.0 0.00 0.70 0.70 95 1010.0
20260506200902 47 37 2.6 7.0 0.00 0.70 0.70 95 1010.1
20260506200702 47 20 0.0 7.8 0.00 0.70 0.70 95 1010.0
20260506200403 47 19 0.9 7.8 0.00 0.70 0.70 95 1010.0
20260506200303 47 19 1.7 7.8 0.00 0.70 0.70 95 1010.0
20260506200210 47 18 1.7 7.0 0.00 0.70 0.70 95 1010.0
20260506195902 47 22 3.5 7.0 0.01 0.70 0.70 95 1010.0
20260506195702 47 12 1.7 4.3 0.01 0.70 0.70 95 1010.0
20260506195603 47 346 1.7 2.6 0.01 0.70 0.70 95 1010.0
20260506195402 47 347 2.6 2.6 0.01 0.70 0.70 95 1010.0
20260506195210 47 346 3.5 5.2 0.00 0.78 0.78 93 9.7
20260506195203 47 350 2.6 2.6 0.01 0.70 0.70 95 1010.0
20260506195004 47 344 0.9 4.3 0.01 0.70 0.70 95 1009.9
20260506194702 47 340 1.7 4.3 0.01 0.70 0.70 95 1009.9
20260506194504 47 15 0.9 2.6 0.01 0.70 0.70 95 1009.9
20260506194303 47 10 0.0 3.5 0.01 0.70 0.70 95 1009.9
20260506194214 47 10 1.7 3.5 0.01 0.70 0.70 95 1009.9
20260506194210 47 10 0.9 3.5 0.01 0.70 0.70 95 1009.9
20260506194004 47 9 1.7 5.2 0.01 0.70 0.70 95 1009.9
20260506193703 47 355 0.9 5.2 0.01 0.70 0.70 95 1009.8
20260506193504 47 355 1.7 2.6 0.01 0.70 0.70 95 1009.9
20260506193210 47 355 2.6 3.5 0.01 0.78 0.78 93 9.7
20260506193202 47 355 0.9 2.6 0.01 0.70 0.70 95 1009.9
20260506193004 47 355 1.7 3.5 0.01 0.70 0.70 95 1009.9
20260506192802 47 355 3.5 3.5 0.01 0.70 0.70 95 1009.8
20260506192702 47 340 2.6 3.5 0.01 0.70 0.70 95 1009.8
20260506192403 47 335 1.7 3.5 0.01 0.70 0.70 95 1009.8
20260506192213 47 335 1.7 3.5 0.01 0.70 0.70 95 1009.8
20260506192211 47 335 1.7 3.5 0.01 0.70 0.70 95 1009.7
20260506192203 47 335 0.0 3.5 0.01 0.70 0.70 95 1009.7
20260506192103 47 337 1.7 3.5 0.01 0.70 0.70 95 1009.7
20260506191803 47 336 1.7 3.5 0.01 0.70 0.70 95 1009.7
20260506191702 47 336 0.9 3.5 0.01 0.70 0.70 95 1009.6
20260506191504 47 340 2.6 3.5 0.01 0.70 0.70 95 1009.6
20260506191402 47 340 2.6 3.5 0.01 0.70 0.70 95 1009.7
20260506191211 47 340 1.7 3.5 0.01 0.70 0.70 95 1009.6
20260506191004 47 342 2.6 3.5 0.01 0.70 0.70 95 1009.6
20260506190903 47 341 2.6 3.5 0.01 0.70 0.70 94 1009.5
20260506190603 47 340 2.6 4.3 0.01 0.70 0.70 94 1009.5
20260506190212 47 325 3.5 7.8 0.01 0.70 0.70 95 1009.6
20260506190210 47 329 2.6 7.8 0.01 0.78 0.78 93 9.3
20260506185902 47 343 2.6 4.3 0.00 0.69 0.69 95 1009.5
20260506185702 47 337 2.6 4.3 0.00 0.69 0.69 95 1009.5
20260506185403 47 332 1.7 4.3 0.00 0.69 0.69 95 1009.5
20260506185212 47 360 2.6 4.3 0.00 0.69 0.69 95 1009.5
20260506185210 47 336 1.7 4.3 0.01 0.78 0.78 93 9.3
20260506185202 47 338 2.6 4.3 0.00 0.69 0.69 95 1009.5
20260506185005 47 348 2.6 4.3 0.00 0.69 0.69 95 1009.4
20260506184902 47 348 2.6 4.3 0.01 0.69 0.69 95 1009.4
20260506184802 47 355 2.6 4.3 0.01 0.69 0.69 95 1009.4
20260506184603 47 317 0.0 4.3 0.01 0.69 0.69 95 1009.4
20260506184504 47 318 2.6 4.3 0.01 0.69 0.69 95 1009.4
20260506184202 47 328 0.9 2.6 0.01 0.69 0.69 94 1009.4
20260506183403 47 328 1.7 2.6 0.01 0.69 0.69 94 1009.3
20260506183212 47 328 1.7 2.6 0.01 0.69 0.69 94 1009.3
20260506183209 47 328 2.6 3.5 0.01 0.77 0.77 92 9.1
20260506183005 47 328 1.7 1.7 0.01 0.69 0.69 94 1009.3
20260506182902 47 328 1.7 2.6 0.01 0.69 0.69 94 1009.2
20260506182703 47 328 0.9 2.6 0.01 0.69 0.69 94 1009.2
20260506182504 47 328 1.7 2.6 0.01 0.69 0.69 94 1009.2
20260506182404 47 328 1.7 3.5 0.01 0.69 0.69 94 1009.2
20260506182306 47 341 2.6 3.5 0.01 0.69 0.69 94 1009.1
20260506182212 47 341 2.6 3.5 0.01 0.69 0.69 94 1009.1
20260506182210 47 344 2.6 3.5 0.01 0.77 0.77 92 9.0
20260506182102 47 355 1.7 3.5 0.01 0.69 0.69 94 1009.2
20260506181703 47 355 1.7 3.5 0.01 0.69 0.69 94 1009.1
20260506181504 47 9 1.7 3.5 0.01 0.69 0.69 94 1009.1
20260506181402 47 360 1.7 3.5 0.01 0.69 0.69 94 1009.1
20260506181212 47 360 0.9 4.3 0.01 0.69 0.69 94 1009.0
20260506181210 47 355 1.7 3.5 0.01 0.77 0.77 92 8.9
20260506181202 47 360 1.7 4.3 0.01 0.69 0.69 94 1009.0
20260506180802 47 355 1.7 4.3 0.01 0.69 0.69 94 1009.1
20260506180702 47 10 1.7 3.5 0.02 0.69 0.69 94 1008.9
20260506180303 47 10 0.9 3.5 0.02 0.69 0.69 94 1008.9
20260506180211 47 10 0.9 3.5 0.02 0.69 0.69 94 1008.9
20260506180202 47 10 1.7 3.5 0.02 0.69 0.69 94 1008.9
20260506180006 47 10 2.6 3.5 0.02 0.69 0.69 94 1008.9
20260506175802 47 5 3.5 3.5 0.02 0.69 0.69 94 1008.8
20260506175602 47 9 0.9 3.5 0.02 0.69 0.69 94 1008.9
20260506175403 47 9 0.9 3.5 0.02 0.69 0.69 94 1008.8
20260506175305 47 9 1.7 3.5 0.02 0.69 0.69 94 1008.8
20260506175211 47 9 1.7 3.5 0.02 0.69 0.69 94 1008.8
20260506175202 47 9 1.7 3.5 0.02 0.69 0.69 94 1008.8
20260506174903 47 9 0.9 2.6 0.01 0.68 0.68 94 1008.8
20260506174602 47 9 1.7 2.6 0.01 0.68 0.68 94 1008.7
20260506174402 47 9 1.7 2.6 0.01 0.68 0.68 94 1008.7
20260506174003 47 9 2.6 3.5 0.01 0.68 0.68 94 1008.7
20260506173802 47 9 1.7 3.5 0.01 0.68 0.68 94 1008.7
20260506173603 47 9 0.0 3.5 0.01 0.68 0.68 94 1008.7
20260506173403 47 9 0.9 3.5 0.01 0.68 0.68 94 1008.6
20260506173210 47 9 0.9 3.5 0.01 0.76 0.76 92 8.4
20260506173203 47 9 1.7 3.5 0.01 0.68 0.68 94 1008.6
20260506173005 47 9 0.0 2.6 0.01 0.68 0.68 94 1008.6
20260506172903 47 360 1.7 2.6 0.01 0.68 0.68 94 1008.6
20260506172702 47 9 2.6 2.6 0.01 0.68 0.68 94 1008.5
20260506172403 47 9 1.7 6.1 0.01 0.68 0.68 94 1008.5
20260506172211 47 329 1.7 6.1 0.01 0.68 0.68 94 1008.5
20260506172004 47 11 0.9 6.1 0.01 0.68 0.68 93 1008.5
20260506171903 47 11 1.7 1.7 0.01 0.68 0.68 93 1008.5
20260506171702 47 11 1.7 3.5 0.01 0.68 0.68 93 1008.5
20260506171504 47 11 0.0 3.5 0.01 0.68 0.68 93 1008.5
20260506171403 47 360 2.6 5.2 0.01 0.68 0.68 93 1008.4
20260506171211 47 5 2.6 3.5 0.01 0.68 0.68 93 1008.4
20260506171102 47 9 1.7 5.2 0.01 0.68 0.68 93 1008.4
20260506170903 47 360 3.5 5.2 0.01 0.68 0.68 93 1008.4
20260506170702 47 360 2.6 3.5 0.01 0.68 0.68 93 1008.5
20260506170504 47 344 1.7 3.5 0.00 0.68 0.68 93 1008.4
20260506170302 47 19 0.9 3.5 0.00 0.68 0.68 93 1008.4
20260506170214 47 19 1.7 3.5 0.00 0.68 0.68 93 1008.4
20260506170210 47 9 2.6 7.0 0.00 0.68 0.68 93 1008.4
20260506170006 47 17 0.0 7.0 0.00 0.68 0.68 92 1008.4
20260506165802 48 337 3.5 7.0 0.00 0.68 0.68 93 1008.4
20260506165603 48 39 3.5 5.2 0.00 0.68 0.68 93 1008.5
20260506165503 48 345 3.5 5.2 0.00 0.68 0.68 93 1008.5
20260506165305 48 20 0.0 3.5 0.00 0.68 0.68 92 1008.4
20260506165210 47 20 1.7 7.0 0.01 0.76 0.76 91 8.2
20260506165104 48 360 2.6 3.5 0.00 0.68 0.68 92 1008.5
20260506164902 48 346 1.7 3.5 0.00 0.68 0.68 92 1008.4
20260506164802 48 34 1.7 3.5 0.00 0.68 0.68 92 1008.4
20260506164603 48 36 2.6 4.3 0.00 0.68 0.68 92 1008.4
20260506164403 48 36 4.3 5.2 0.00 0.68 0.68 92 1008.4
20260506164213 48 24 2.6 5.2 0.00 0.68 0.68 92 1008.4
20260506164210 47 45 3.5 7.0 0.00 0.75 0.75 91 8.2
20260506164204 48 24 1.7 5.2 0.00 0.68 0.68 92 1008.4
20260506164103 48 348 1.7 5.2 0.00 0.68 0.68 92 1008.4
20260506164003 48 33 3.5 5.2 0.00 0.68 0.68 92 1008.4
20260506163903 48 9 2.6 7.0 0.00 0.68 0.68 92 1008.4
20260506163502 48 355 3.5 7.0 0.00 0.68 0.68 92 1008.4
20260506163403 48 355 3.5 7.0 0.00 0.68 0.68 92 1008.4
20260506163210 48 22 3.5 5.2 0.00 0.75 0.75 91 8.1
20260506163202 48 15 0.0 3.5 0.00 0.68 0.68 92 1008.4
20260506162902 48 13 0.9 4.3 0.00 0.68 0.68 92 1008.3
20260506162803 48 5 1.7 4.3 0.00 0.68 0.68 92 1008.4
20260506162603 48 5 0.9 4.3 0.00 0.68 0.68 92 1008.3
20260506162402 48 40 2.6 3.5 0.00 0.68 0.68 92 1008.3
20260506162211 48 5 1.7 3.5 0.00 0.68 0.68 92 1008.3
20260506162103 48 12 1.7 4.3 0.00 0.68 0.68 92 1008.2
20260506161803 48 19 0.0 4.3 0.00 0.68 0.68 92 1008.3
20260506161702 48 27 2.6 5.2 0.00 0.68 0.68 92 1008.3
20260506161603 48 27 1.7 5.2 0.00 0.68 0.68 92 1008.3
20260506161402 48 10 3.5 5.2 0.00 0.68 0.68 92 1008.3
20260506161303 48 5 3.5 5.2 0.00 0.68 0.68 92 1008.3
20260506161210 47 5 2.6 7.0 0.00 0.75 0.75 90 8.1
20260506161103 48 19 2.6 7.8 0.00 0.68 0.68 92 1008.3
20260506160904 48 22 1.7 7.8 0.00 0.68 0.68 92 1008.2
20260506160702 48 19 2.6 7.8 0.00 0.68 0.68 92 1008.2
20260506160504 48 5 0.0 7.0 0.00 0.68 0.68 92 1008.2
20260506160403 48 360 2.6 7.0 0.00 0.68 0.68 92 1008.2
20260506155903 48 24 4.3 5.2 0.00 0.68 0.68 92 1008.2
20260506155703 48 355 2.6 5.2 0.00 0.68 0.68 92 1008.1
20260506155505 48 355 4.3 5.2 0.00 0.68 0.68 92 1008.0
20260506155305 48 336 0.9 7.0 0.00 0.68 0.68 92 1008.1
20260506155202 48 349 2.6 7.0 0.00 0.68 0.68 92 1008.0
20260506154903 48 355 4.3 7.0 0.00 0.68 0.68 92 1008.1
20260506154703 48 32 2.6 7.0 0.00 0.68 0.68 92 1008.0
20260506154504 48 20 4.3 7.0 0.00 0.68 0.68 92 1008.0
20260506154302 48 355 1.7 7.0 0.00 0.68 0.68 92 1008.0
20260506154210 48 355 4.3 9.6 0.00 0.68 0.68 92 1008.0
20260506154103 48 360 1.7 6.1 0.00 0.68 0.68 92 1008.0
20260506153902 48 331 3.5 7.0 0.00 0.68 0.68 92 1008.0
20260506153703 48 350 4.3 7.0 0.00 0.68 0.68 92 1008.0
20260506153503 48 360 1.7 7.0 0.00 0.68 0.68 92 1008.0
20260506153303 48 44 5.2 5.2 0.00 0.68 0.68 92 1008.1
20260506153103 48 339 4.3 5.2 0.00 0.68 0.68 92 1008.0
20260506153003 48 340 3.5 5.2 0.00 0.68 0.68 92 1008.0
20260506152703 48 340 3.5 5.2 0.00 0.68 0.68 91 1008.1
20260506152504 48 348 0.0 4.3 0.00 0.68 0.68 91 1008.1
20260506152202 48 355 3.5 4.3 0.00 0.68 0.68 91 1008.1
20260506151903 48 14 3.5 7.0 0.00 0.68 0.68 92 1008.1
20260506151702 48 344 3.5 7.0 0.00 0.68 0.68 92 1008.1
20260506151603 48 340 0.0 7.8 0.00 0.68 0.68 92 1008.1
20260506151403 48 5 4.3 7.8 0.00 0.68 0.68 92 1008.1
20260506151202 48 5 5.2 7.8 0.00 0.68 0.68 92 1008.1
20260506151103 48 351 5.2 7.8 0.00 0.68 0.68 92 1008.0
20260506151005 48 350 3.5 5.2 0.00 0.68 0.68 92 1008.0
20260506150903 48 320 2.6 4.3 0.00 0.68 0.68 91 1008.1
20260506150605 48 342 2.6 7.8 0.00 0.68 0.68 91 1008.0
20260506150403 48 28 3.5 7.8 0.00 0.68 0.68 92 1008.0
20260506150213 48 340 2.6 7.8 0.00 0.68 0.68 92 1008.0
20260506150210 48 340 2.6 7.8 0.00 0.75 0.75 90 7.8
20260506150203 48 342 4.3 7.8 0.00 0.68 0.68 92 1008.0
20260506150005 48 319 2.6 5.2 0.00 0.68 0.68 92 1008.0
20260506145802 48 340 2.6 8.7 0.00 0.68 0.68 92 1007.9
20260506145605 48 302 7.0 8.7 0.00 0.68 0.68 91 1007.9
20260506145402 48 355 3.5 8.7 0.00 0.68 0.68 92 1007.9
20260506145305 48 305 3.5 5.2 0.00 0.68 0.68 92 1007.9
20260506145213 48 336 6.1 8.7 0.00 0.68 0.68 92 1007.9
20260506145210 48 305 2.6 5.2 0.00 0.68 0.68 92 1007.9
20260506145004 48 333 1.7 5.2 0.00 0.68 0.68 92 1007.8
20260506144803 48 360 2.6 7.8 0.00 0.68 0.68 92 1007.8
20260506144603 48 332 3.5 7.8 0.00 0.68 0.68 92 1007.9
20260506144505 48 343 3.5 7.8 0.00 0.68 0.68 92 1007.8
20260506144212 48 15 3.5 7.8 0.00 0.68 0.68 92 1007.8
20260506144210 48 342 4.3 7.8 0.00 0.68 0.68 92 1007.8
20260506144202 48 342 3.5 7.8 0.00 0.68 0.68 92 1007.8
20260506144103 48 355 2.6 7.8 0.00 0.68 0.68 91 1007.8
20260506143802 48 355 3.5 7.8 0.00 0.68 0.68 91 1007.8
20260506143702 48 346 4.3 7.8 0.00 0.68 0.68 91 1007.8
20260506143604 48 16 3.5 7.8 0.00 0.68 0.68 91 1007.8
20260506143402 48 19 3.5 6.1 0.00 0.68 0.68 91 1007.8
20260506143302 48 355 1.7 6.1 0.00 0.68 0.68 91 1007.8
20260506143213 48 41 3.5 6.1 0.00 0.68 0.68 91 1007.8
20260506143210 48 355 3.5 6.1 0.00 0.68 0.68 91 1007.8
20260506143203 48 33 2.6 7.0 0.00 0.68 0.68 91 1007.8
20260506142902 49 331 4.3 7.0 0.00 0.68 0.68 91 1007.7
20260506142802 49 355 4.3 7.0 0.00 0.68 0.68 91 1007.8
20260506142403 49 355 3.5 6.1 0.00 0.68 0.68 92 1007.7
20260506142305 49 355 4.3 7.8 0.00 0.68 0.68 92 1007.7
20260506142210 49 355 2.6 7.8 0.00 0.75 0.75 90 7.5
20260506142203 49 14 1.7 8.7 0.00 0.68 0.68 92 1007.7
20260506142004 49 344 5.2 8.7 0.00 0.68 0.68 92 1007.7
20260506141903 49 336 7.0 8.7 0.00 0.68 0.68 92 1007.8
20260506141703 49 326 3.5 8.7 0.00 0.68 0.68 93 1007.7
20260506141504 49 5 5.2 7.0 0.00 0.68 0.68 93 1007.8
20260506141302 48 360 2.6 7.0 0.00 0.68 0.68 92 1007.8
20260506141210 49 339 4.3 7.0 0.00 0.68 0.68 92 1007.8
20260506141203 48 15 3.5 7.0 0.00 0.68 0.68 92 1007.8
20260506141004 48 341 2.6 7.0 0.00 0.68 0.68 92 1007.8
20260506140802 48 5 0.0 7.0 0.00 0.68 0.68 92 1007.7
20260506140704 48 360 1.7 7.0 0.00 0.68 0.68 92 1007.8
20260506140504 48 360 2.6 7.0 0.00 0.68 0.68 92 1007.8
20260506140402 48 355 2.6 7.0 0.00 0.68 0.68 92 1007.8
20260506140210 48 23 3.5 5.2 0.01 0.68 0.68 92 1007.8
20260506140203 48 23 0.0 5.2 0.01 0.68 0.68 92 1007.8
20260506140005 48 15 2.6 5.2 0.01 0.68 0.68 92 1007.8
20260506135903 48 15 3.5 5.2 0.01 0.68 0.68 92 1007.8
20260506135504 48 337 1.7 5.2 0.01 0.68 0.68 92 1007.8
20260506135305 48 348 2.6 5.2 0.01 0.68 0.68 92 1007.9
20260506135210 48 349 2.6 4.3 0.00 0.75 0.75 90 7.5
20260506135203 48 344 2.6 5.2 0.01 0.68 0.68 92 1007.9
20260506135004 48 360 0.0 7.8 0.01 0.68 0.68 92 1007.8
20260506134903 48 340 7.0 7.8 0.01 0.68 0.68 92 1007.9
20260506134703 48 340 2.6 7.8 0.01 0.68 0.68 92 1007.9
20260506134603 48 355 2.6 6.1 0.01 0.68 0.68 92 1007.9
20260506134504 48 351 3.5 6.1 0.01 0.68 0.68 92 1007.8
20260506134302 48 340 2.6 5.2 0.01 0.68 0.68 92 1007.9
20260506134210 48 355 3.5 7.8 0.01 0.68 0.68 92 1007.8
20260506134203 48 355 3.5 6.1 0.01 0.68 0.68 92 1007.8
20260506133903 49 348 5.2 6.1 0.01 0.68 0.68 92 1007.9
20260506133802 49 14 4.3 6.1 0.01 0.68 0.68 92 1007.8
20260506133703 49 329 2.6 5.2 0.01 0.68 0.68 93 1007.8
20260506133603 49 345 2.6 4.3 0.01 0.68 0.68 92 1007.8
20260506133504 49 344 0.9 5.2 0.01 0.68 0.68 92 1007.8
20260506133304 49 21 2.6 5.2 0.01 0.68 0.68 93 1007.8
20260506133210 49 21 2.6 5.2 0.01 0.68 0.68 93 1007.8
20260506133102 49 335 2.6 7.0 0.02 0.68 0.68 93 1007.8
20260506132703 49 355 1.7 7.8 0.02 0.68 0.68 92 1007.8
20260506132503 49 330 3.5 7.8 0.02 0.68 0.68 92 1007.7
20260506132203 49 360 3.5 8.7 0.02 0.68 0.68 92 1007.7
20260506132006 49 48 0.0 8.7 0.02 0.68 0.68 92 1007.7
20260506131803 49 337 4.3 8.7 0.02 0.68 0.68 92 1007.7
20260506131703 49 340 6.1 7.8 0.02 0.68 0.68 93 1007.7
20260506131503 49 10 3.5 7.8 0.02 0.68 0.68 93 1007.7
20260506131402 49 324 4.3 7.8 0.02 0.68 0.68 93 1007.7
20260506131210 49 360 4.3 7.8 0.02 0.68 0.68 93 1007.7
20260506131202 49 348 1.7 5.2 0.02 0.68 0.68 93 1007.7
20260506131004 49 340 2.6 8.7 0.02 0.68 0.68 93 1007.7
20260506130802 49 41 5.2 8.7 0.02 0.68 0.68 93 1007.6
20260506130702 49 321 5.2 8.7 0.02 0.68 0.68 93 1007.6
20260506130604 49 10 2.6 8.7 0.02 0.68 0.68 93 1007.6
20260506130403 49 360 2.6 4.3 0.02 0.68 0.68 93 1007.6
20260506130302 49 323 2.6 4.3 0.02 0.67 0.67 93 1007.6
20260506130210 48 335 2.6 4.3 0.02 0.67 0.67 93 1007.6
20260506130203 48 335 2.6 4.3 0.02 0.67 0.67 93 1007.6
20260506125603 48 17 3.5 7.8 0.02 0.67 0.67 93 1007.6
20260506125402 48 32 2.6 7.0 0.02 0.67 0.67 93 1007.5
20260506125210 48 36 2.6 7.0 0.02 0.75 0.75 91 7.3
20260506125202 48 5 4.3 7.0 0.02 0.67 0.67 93 1007.5
20260506125005 48 15 1.7 6.1 0.02 0.67 0.67 93 1007.5
20260506124803 48 337 2.6 5.2 0.02 0.67 0.67 93 1007.5
20260506124602 48 25 3.5 5.2 0.02 0.67 0.67 93 1007.5
20260506124303 48 5 3.5 7.0 0.02 0.67 0.67 93 1007.4
20260506124210 48 355 2.6 7.0 0.02 0.67 0.67 93 1007.4
20260506124203 48 355 4.3 7.0 0.02 0.67 0.67 93 1007.4
20260506124003 48 10 3.5 7.0 0.02 0.67 0.67 93 1007.4
20260506123903 48 339 3.5 7.0 0.02 0.67 0.67 93 1007.4
20260506123703 48 17 3.5 6.1 0.02 0.67 0.67 93 1007.3
20260506123504 48 26 0.0 7.0 0.02 0.67 0.67 93 1007.4
20260506123210 48 20 1.7 7.8 0.02 0.67 0.67 93 1007.3
20260506123202 48 46 3.5 7.0 0.02 0.66 0.66 93 1007.3
20260506123103 48 9 3.5 7.0 0.02 0.66 0.66 93 1007.4
20260506122903 48 333 4.3 7.0 0.02 0.66 0.66 93 1007.3
20260506122703 48 346 3.5 7.0 0.02 0.66 0.66 93 1007.3
20260506122505 48 20 4.3 7.8 0.02 0.66 0.66 93 1007.3
20260506122403 48 345 4.3 7.8 0.02 0.66 0.66 93 1007.3
20260506122210 49 16 2.6 7.8 0.02 0.66 0.66 93 1007.3
20260506122203 49 30 2.6 7.8 0.02 0.66 0.66 93 1007.3
20260506122104 49 348 0.0 7.8 0.02 0.66 0.66 93 1007.3
20260506121702 49 343 4.3 7.8 0.02 0.66 0.66 93 1007.3
20260506121403 49 333 0.9 7.0 0.03 0.66 0.66 93 1007.2
20260506121210 49 355 2.6 7.0 0.03 0.66 0.66 93 1007.2
20260506121203 49 355 2.6 7.0 0.03 0.66 0.66 93 1007.2
20260506121006 48 5 2.6 7.0 0.03 0.66 0.66 93 1007.2
20260506120803 48 33 1.7 5.2 0.03 0.66 0.66 93 1007.2
20260506120703 48 355 3.5 5.2 0.03 0.66 0.66 93 1007.2
20260506120504 48 28 3.5 7.8 0.03 0.66 0.66 93 1007.1
20260506120302 48 12 2.6 7.8 0.02 0.65 0.65 93 1007.2
20260506115904 48 17 2.6 8.7 0.02 0.65 0.65 93 1007.1
20260506115702 49 342 4.3 8.7 0.02 0.65 0.65 93 1007.1
20260506115504 49 9 0.0 8.7 0.02 0.65 0.65 93 1007.0
20260506115210 49 30 5.2 8.7 0.02 0.74 0.74 91 6.8
20260506115203 49 329 4.3 7.0 0.02 0.65 0.65 93 1007.0
20260506115103 49 360 2.6 6.1 0.02 0.65 0.65 93 1007.1
20260506115003 49 343 3.5 6.1 0.02 0.65 0.65 93 1007.0
20260506114603 50 350 0.0 5.2 0.02 0.65 0.65 93 1006.9
20260506114505 49 360 2.6 5.2 0.02 0.65 0.65 93 1007.0
20260506114303 49 355 2.6 7.0 0.02 0.65 0.65 93 1006.9
20260506114203 49 28 2.6 7.0 0.02 0.65 0.65 93 1007.0
20260506114103 49 5 7.0 7.0 0.02 0.65 0.65 93 1006.9
20260506113903 49 32 0.0 7.0 0.02 0.65 0.65 93 1006.9
20260506113802 49 5 2.6 6.1 0.02 0.65 0.65 93 1006.9
20260506113703 49 5 4.3 6.1 0.02 0.65 0.65 93 1006.9
20260506113503 49 32 1.7 6.1 0.02 0.65 0.65 93 1006.9
20260506113403 50 22 3.5 5.2 0.02 0.65 0.65 93 1006.9
20260506113302 50 23 0.0 7.0 0.02 0.64 0.64 93 1007.0
20260506113210 50 40 2.6 7.8 0.02 0.64 0.64 93 1006.9
20260506112803 50 19 4.3 7.0 0.02 0.64 0.64 93 1006.9
20260506112703 50 36 2.6 5.2 0.02 0.64 0.64 93 1006.8
20260506112504 50 349 0.0 4.3 0.02 0.64 0.64 93 1006.8
20260506112402 50 360 2.6 4.3 0.01 0.64 0.64 93 1006.8
20260506112210 50 5 2.6 4.3 0.01 0.64 0.64 93 1006.8
20260506112104 50 11 2.6 5.2 0.01 0.64 0.64 93 1006.8
20260506112005 50 31 2.6 6.1 0.01 0.64 0.64 93 1006.8
20260506111803 50 355 2.6 6.1 0.01 0.64 0.64 93 1006.8
20260506111602 50 333 2.6 7.8 0.01 0.64 0.64 93 1006.8
20260506111402 50 360 2.6 7.8 0.00 0.63 0.63 93 1006.7
20260506111210 50 317 3.5 7.8 0.00 0.63 0.63 93 1006.7
20260506111202 50 317 3.5 7.8 0.00 0.63 0.63 93 1006.7
20260506111004 50 344 0.0 7.8 0.00 0.63 0.63 93 1006.7
20260506110902 50 360 3.5 7.8 0.00 0.63 0.63 93 1006.7
20260506110802 50 346 3.5 8.7 0.00 0.63 0.63 93 1006.7
20260506110603 50 329 3.5 8.7 0.00 0.63 0.63 93 1006.7
20260506110504 50 342 4.3 8.7 0.00 0.63 0.63 93 1006.7
20260506110302 50 333 2.6 8.7 0.00 0.63 0.63 94 1006.7
20260506105903 49 333 2.6 7.8 0.00 0.63 0.63 93 1006.7
20260506105602 50 14 2.6 5.2 0.00 0.63 0.63 93 1006.7
20260506105504 49 340 0.0 5.2 0.01 0.63 0.63 93 1006.8
20260506105305 49 360 1.7 5.2 0.01 0.63 0.63 93 1006.8
20260506105210 49 330 2.6 7.0 0.01 0.71 0.71 92 6.5
20260506105005 50 33 3.5 5.2 0.01 0.63 0.63 93 1006.8
20260506104802 50 350 3.5 5.2 0.01 0.63 0.63 93 1006.7
20260506104602 50 355 3.5 7.0 0.01 0.63 0.63 93 1006.7
20260506104505 50 355 2.6 7.0 0.01 0.63 0.63 93 1006.7
20260506104402 50 355 2.6 7.0 0.01 0.63 0.63 93 1006.7
20260506104210 50 17 2.6 8.7 0.01 0.63 0.63 93 1006.7
20260506104103 50 343 3.5 7.0 0.01 0.63 0.63 93 1006.7
20260506103902 50 337 6.1 7.0 0.01 0.63 0.63 93 1006.7
20260506103802 50 346 5.2 7.0 0.01 0.63 0.63 93 1006.7
20260506103703 50 355 3.5 7.0 0.01 0.63 0.63 93 1006.7
20260506103404 50 341 1.7 4.3 0.01 0.63 0.63 93 1006.7
20260506103211 50 343 4.3 11.3 0.01 0.63 0.63 93 1006.6
20260506103202 50 323 4.3 10.4 0.01 0.63 0.63 93 1006.6
20260506103005 50 336 6.1 10.4 0.01 0.63 0.63 93 1006.7
20260506102903 50 333 9.6 10.4 0.01 0.63 0.63 93 1006.6
20260506102703 50 324 3.5 6.1 0.02 0.63 0.63 93 1006.6
20260506102505 50 350 1.7 6.1 0.02 0.63 0.63 93 1006.6
20260506102210 51 317 2.6 7.0 0.02 0.63 0.63 94 1006.6
20260506102203 51 338 2.6 7.0 0.02 0.63 0.63 94 1006.6
20260506102104 50 349 3.5 7.0 0.02 0.63 0.63 93 1006.5
20260506101803 50 26 3.5 7.8 0.02 0.63 0.63 94 1006.6
20260506101702 50 38 2.6 7.8 0.02 0.63 0.63 94 1006.5
20260506101210 50 24 2.6 8.7 0.02 0.63 0.63 94 1006.5
20260506101202 50 24 1.7 7.8 0.02 0.63 0.63 94 1006.5
20260506101103 50 42 0.9 8.7 0.02 0.63 0.63 94 1006.5
20260506101006 50 42 7.0 8.7 0.02 0.63 0.63 94 1006.5
20260506100903 50 26 0.0 8.7 0.03 0.63 0.63 94 1006.5
20260506100802 50 45 3.5 8.7 0.03 0.63 0.63 94 1006.4
20260506100603 50 345 2.6 7.0 0.03 0.63 0.63 94 1006.5
20260506100503 50 351 2.6 7.0 0.03 0.63 0.63 94 1006.5
20260506100302 50 5 4.3 7.0 0.03 0.63 0.63 94 1006.4
20260506095903 50 350 1.7 4.3 0.04 0.63 0.63 94 1006.4
20260506095802 50 24 1.7 4.3 0.04 0.63 0.63 94 1006.4
20260506095703 50 26 0.9 4.3 0.04 0.63 0.63 94 1006.4
20260506095604 50 27 2.6 5.2 0.04 0.63 0.63 94 1006.4
20260506095403 50 13 1.7 5.2 0.03 0.62 0.62 94 1006.4
20260506095305 50 348 2.6 5.2 0.03 0.62 0.62 94 1006.4
20260506095210 50 345 2.6 7.0 0.03 0.62 0.62 94 1006.4
20260506095203 50 345 2.6 7.0 0.03 0.62 0.62 94 1006.4
20260506095005 50 315 5.2 7.0 0.03 0.62 0.62 94 1006.4
20260506094902 50 337 4.3 7.0 0.03 0.62 0.62 94 1006.4
20260506094702 50 333 2.6 4.3 0.03 0.62 0.62 94 1006.4
20260506094603 50 355 2.6 4.3 0.04 0.62 0.62 94 1006.4
20260506094504 50 348 3.5 4.3 0.04 0.62 0.62 94 1006.4
20260506094302 50 360 1.7 4.3 0.04 0.62 0.62 94 1006.4
20260506094104 50 5 2.6 3.5 0.04 0.62 0.62 94 1006.4
20260506094004 50 355 2.6 3.5 0.04 0.62 0.62 94 1006.4
20260506093903 50 11 3.5 3.5 0.04 0.62 0.62 94 1006.4
20260506093802 50 23 1.7 6.1 0.04 0.62 0.62 94 1006.4
20260506093702 50 11 2.6 6.1 0.04 0.62 0.62 94 1006.4
20260506093503 49 351 4.3 6.1 0.04 0.62 0.62 94 1006.4
20260506093402 50 337 2.6 6.1 0.04 0.62 0.62 94 1006.4
20260506093210 50 321 1.7 4.3 0.04 0.62 0.62 94 1006.3
20260506093103 49 9 1.7 5.2 0.04 0.62 0.62 94 1006.3
20260506092902 49 5 2.6 5.2 0.04 0.62 0.62 94 1006.3
20260506092803 49 5 2.6 5.2 0.03 0.61 0.61 94 1006.3
20260506092703 49 339 5.2 5.2 0.03 0.61 0.61 94 1006.3
20260506092603 49 346 1.7 4.3 0.03 0.61 0.61 94 1006.3
20260506092402 49 12 1.7 4.3 0.03 0.61 0.61 94 1006.2
20260506092210 49 360 1.7 4.3 0.04 0.70 0.70 93 6.0
20260506092103 49 336 0.0 4.3 0.03 0.61 0.61 94 1006.2
20260506092004 49 346 2.6 4.3 0.03 0.61 0.61 94 1006.2
20260506091902 49 346 3.5 4.3 0.03 0.61 0.61 94 1006.2
20260506091802 49 344 3.5 4.3 0.02 0.61 0.61 94 1006.2
20260506091602 49 336 0.0 7.0 0.02 0.61 0.61 94 1006.2
20260506091504 49 11 1.7 7.0 0.02 0.61 0.61 94 1006.2
20260506091303 49 11 2.6 7.0 0.02 0.61 0.61 94 1006.2
20260506091213 49 11 3.5 7.0 0.02 0.61 0.61 94 1006.2
20260506091210 49 11 1.7 7.0 0.02 0.68 0.68 93 5.9
20260506091203 49 5 2.6 7.0 0.02 0.61 0.61 94 1006.2
20260506091103 49 31 2.6 7.0 0.02 0.61 0.61 94 1006.3
20260506090902 49 10 2.6 6.1 0.02 0.60 0.60 94 1006.3
20260506090703 49 338 3.5 6.1 0.02 0.60 0.60 94 1006.3
20260506090504 49 349 0.0 7.0 0.02 0.60 0.60 94 1006.2
20260506090303 49 360 3.5 7.0 0.02 0.60 0.60 94 1006.2
20260506090213 49 11 3.5 7.8 0.02 0.60 0.60 94 1006.2
20260506090210 49 360 2.6 7.8 0.02 0.67 0.67 93 5.9
20260506090203 49 322 3.5 7.0 0.02 0.59 0.59 94 1006.2
20260506085902 49 11 1.7 7.0 0.02 0.59 0.59 94 1006.2
20260506085703 49 19 3.5 4.3 0.02 0.59 0.59 94 1006.2
20260506085504 49 351 1.7 4.3 0.02 0.59 0.59 94 1006.2
20260506085213 49 22 2.6 4.3 0.02 0.59 0.59 94 1006.1
20260506085210 49 320 2.6 4.3 0.02 0.67 0.67 93 5.9
20260506085203 49 22 2.6 4.3 0.02 0.59 0.59 94 1006.1
20260506085103 49 44 2.6 4.3 0.02 0.59 0.59 94 1006.1
20260506085004 49 342 2.6 4.3 0.02 0.59 0.59 94 1006.1
20260506084903 49 21 0.0 4.3 0.02 0.59 0.59 94 1006.0
20260506084602 49 315 1.7 6.1 0.01 0.58 0.58 94 1006.1
20260506084504 49 304 1.7 6.1 0.01 0.58 0.58 94 1006.0
20260506084303 49 360 1.7 6.1 0.01 0.58 0.58 94 1006.0
20260506084213 49 350 2.6 6.1 0.01 0.58 0.58 94 1006.0
20260506084210 49 355 1.7 6.1 0.02 0.67 0.67 93 5.8
20260506084203 49 350 1.7 6.1 0.01 0.58 0.58 94 1006.0
20260506084004 49 355 3.5 7.8 0.01 0.58 0.58 94 1006.0
20260506083903 49 11 2.6 7.8 0.01 0.58 0.58 94 1006.0
20260506083702 49 10 5.2 7.8 0.01 0.58 0.58 94 1005.9
20260506083504 49 20 0.0 6.1 0.01 0.58 0.58 94 1005.9
20260506083304 49 360 2.6 5.2 0.01 0.58 0.58 94 1005.9
20260506083213 49 9 1.7 7.0 0.01 0.58 0.58 94 1005.9
20260506083210 49 30 1.7 5.2 0.01 0.66 0.66 93 5.6
20260506083102 49 9 1.7 3.5 0.01 0.58 0.58 94 1005.9
20260506082903 49 355 3.5 4.3 0.01 0.58 0.58 94 1005.8
20260506082802 49 10 2.6 6.1 0.01 0.58 0.58 94 1005.8
20260506082602 49 5 2.6 6.1 0.01 0.58 0.58 94 1005.8
20260506082402 49 16 2.6 6.1 0.01 0.58 0.58 94 1005.8
20260506082213 49 347 3.5 6.1 0.01 0.58 0.58 95 1005.7
20260506082210 49 347 3.5 7.8 0.01 0.58 0.58 94 1005.8
20260506082203 49 347 4.3 7.8 0.01 0.58 0.58 94 1005.8
20260506082003 49 51 3.5 7.8 0.01 0.58 0.58 94 1005.8
20260506081902 49 57 2.6 7.8 0.01 0.58 0.58 94 1005.8
20260506081703 49 13 1.7 6.1 0.01 0.58 0.58 94 1005.8
20260506081503 49 13 2.6 6.1 0.01 0.58 0.58 94 1005.8
20260506081402 49 15 3.5 6.1 0.01 0.58 0.58 94 1005.8
20260506081303 49 32 2.6 5.2 0.01 0.58 0.58 95 1005.8
20260506081210 49 32 3.5 5.2 0.01 0.66 0.66 93 5.5
20260506081105 49 5 0.0 5.2 0.01 0.58 0.58 94 1005.8
20260506080903 49 360 3.5 5.2 0.02 0.58 0.58 94 1005.7
20260506080803 49 30 1.7 5.2 0.02 0.58 0.58 94 1005.7
20260506080704 49 34 1.7 9.6 0.02 0.58 0.58 94 1005.7
20260506080504 49 26 2.6 9.6 0.02 0.58 0.58 94 1005.7
20260506080402 49 12 5.2 9.6 0.02 0.58 0.58 94 1005.7
20260506073302 49 23 4.3 9.6 0.02 0.58 0.58 95 1005.5
20260506073210 49 26 3.5 8.7 0.02 0.58 0.58 95 1005.4
20260506073203 49 29 4.3 9.6 0.02 0.58 0.58 95 1005.4
20260506073005 49 17 4.3 7.8 0.02 0.58 0.58 95 1005.5
20260506072903 49 40 4.3 7.8 0.02 0.58 0.58 95 1005.5
20260506072803 49 12 2.6 7.8 0.02 0.58 0.58 95 1005.4
20260506072603 49 12 1.7 6.1 0.02 0.58 0.58 95 1005.5
20260506072210 49 17 2.6 7.8 0.02 0.65 0.65 93 5.1
20260506072204 49 33 2.6 7.8 0.02 0.58 0.58 95 1005.4
20260506072004 49 38 1.7 8.7 0.02 0.58 0.58 95 1005.3
20260506071802 49 15 3.5 8.7 0.02 0.58 0.58 95 1005.4
20260506071702 49 12 6.1 8.7 0.02 0.58 0.58 95 1005.4
20260506071603 49 32 5.2 8.7 0.02 0.58 0.58 95 1005.3
20260506071504 49 350 3.5 8.7 0.02 0.58 0.58 95 1005.3
20260506071303 49 53 0.0 7.0 0.02 0.58 0.58 95 1005.3
20260506071210 49 53 3.5 7.8 0.02 0.58 0.58 95 1005.3
20260506071202 49 9 1.7 7.0 0.02 0.58 0.58 95 1005.3
20260506071006 49 9 4.3 7.0 0.02 0.58 0.58 95 1005.3
20260506070803 49 21 3.5 11.3 0.02 0.57 0.57 95 1005.4
20260506070703 49 32 2.6 11.3 0.02 0.57 0.57 95 1005.4
20260506070604 49 25 7.8 11.3 0.02 0.57 0.57 95 1005.4
20260506070402 49 24 0.9 7.8 0.02 0.57 0.57 95 1005.3
20260506070302 49 28 3.5 7.8 0.02 0.57 0.57 95 1005.4
20260506070213 49 28 0.9 9.6 0.02 0.57 0.57 95 1005.4
20260506070211 49 28 0.9 9.6 0.03 0.65 0.65 93 5.1
20260506070203 49 28 5.2 9.6 0.02 0.57 0.57 95 1005.4
20260506062503 49 30 3.5 7.0 0.04 0.56 0.56 95 1005.1
20260506062305 49 37 1.7 10.4 0.05 0.56 0.56 95 1005.2
20260506062213 49 32 3.5 10.4 0.05 0.56 0.56 95 1005.1
20260506062211 49 37 2.6 10.4 0.05 0.56 0.56 95 1005.2
20260506062202 49 37 2.6 10.4 0.05 0.56 0.56 95 1005.2
20260506062103 49 5 2.6 10.4 0.04 0.55 0.55 95 1005.2
20260506062006 49 355 4.3 10.4 0.04 0.55 0.55 95 1005.1
20260506061802 49 22 2.6 7.8 0.04 0.55 0.55 95 1005.1
20260506061603 49 351 2.6 5.2 0.04 0.55 0.55 95 1005.1
20260506061505 49 26 0.0 5.2 0.05 0.55 0.55 95 1005.1
20260506061402 49 40 5.2 5.2 0.05 0.55 0.55 95 1005.1
20260506061213 49 24 2.6 5.2 0.05 0.55 0.55 95 1005.1
20260506061211 49 36 5.2 9.6 0.05 0.63 0.63 94 4.9
20260506061203 49 24 4.3 5.2 0.05 0.55 0.55 95 1005.1
20260506061005 49 45 0.0 5.2 0.05 0.55 0.55 95 1005.1
20260506060903 49 22 2.6 8.7 0.05 0.55 0.55 95 1005.0
20260506060704 49 13 6.1 8.7 0.05 0.55 0.55 95 1005.0
20260506060603 49 15 2.6 8.7 0.05 0.55 0.55 95 1005.1
20260506060402 49 25 3.5 5.2 0.05 0.55 0.55 95 1005.1
20260506060303 49 52 1.7 5.2 0.05 0.55 0.55 95 1005.1
20260506060213 49 31 3.5 7.0 0.05 0.55 0.55 95 1005.1
20260506060211 49 52 2.6 5.2 0.05 0.55 0.55 95 1005.1